Weather History for KBLH - July, 2013

Change the Weather History Date:

Saturday, July 20, 2013

  Actual Average (KNYL) Record (KNYL)
Temperature  
Mean Temperature 88 °F 95 °F  
Max Temperature 99 °F 107 °F 117 °F (1960)
Min Temperature 78 °F 83 °F 65 °F (1940)
Degree Days  
Heating Degree Days 0 0  
Month to date heating degree days 0  
Since 1 June heating degree days 0  
Since 1 July heating degree days 0  
Cooling Degree Days 23 30  
Month to date cooling degree days 584  
Year to date cooling degree days 2217  
Since 1 June cooling degree days 1305  
Growing Degree Days 38 (Base 50)    
Moisture  
Dew Point 70 °F    
Average Humidity 59    
Maximum Humidity 88    
Minimum Humidity 35    
Precipitation  
Precipitation 0.09 in 0.01 in 0.74 in (2008)
Month to date precipitation 0.12  
Year to date precipitation 1.45  
Sea Level Pressure  
Sea Level Pressure 29.76 in    
Wind  
Wind Speed 10 mph (South)    
Max Wind Speed 21 mph    
Max Gust Speed 28 mph    
Visibility 10 miles    
Events Rain , Thunderstorm    
T = Trace of Precipitation, MM = Missing Value Source: NWS Daily Summary

Daily Weather History Graph

Daily Weather History Graph

Search for Another Location

Airport or City:

Trip Planner

Search our weather history database for the weather conditions in past years. The results will help you decide how hot, cold, wet, or windy it might be!

Date:

Astronomy

Jul. 20, 2013 Rise Set
Actual Time 5:43 AM PDT 7:47 PM PDT
Civil Twilight 5:15 AM PDT 8:15 PM PDT
Nautical Twilight 4:40 AM PDT 8:49 PM PDT
Astronomical Twilight 4:04 AM PDT 9:25 PM PDT
Moon 5:55 PM PDT (7/20) 3:27 AM PDT (7/20)
Length of Visible Light 15h 00m
Length of Day
14h 04m
Waxing Gibbous, 94% of the Moon is Illuminated
Jul 20
Waxing Gibbous
Jul 22
Full
Jul 29
Last Quarter
Aug 6
New
Aug 14
First Quarter

Hourly Weather History & Observations

Time (PDT) Temp. Heat Index Dew Point Humidity Pressure Visibility Wind Dir Wind Speed Gust Speed Precip Events Conditions
12:52 AM 88.0 °F 92.9 °F 70.0 °F 55% 29.76 in 10.0 mi SSW 12.7 mph - N/A   Clear
1:17 AM 87.8 °F 92.6 °F 69.8 °F 55% 29.78 in 10.0 mi South 9.2 mph - N/A Thunderstorm Clear
1:35 AM 87.8 °F 90.4 °F 66.2 °F 49% 29.77 in 10.0 mi South 11.5 mph - N/A   Clear
1:52 AM 87.1 °F 89.2 °F 66.0 °F 49% 29.75 in 10.0 mi SSW 6.9 mph - N/A   Clear
1:59 AM 87.8 °F 90.4 °F 66.2 °F 49% 29.78 in 10.0 mi SSW 4.6 mph - N/A Thunderstorm Clear
2:12 AM 87.8 °F 90.4 °F 66.2 °F 49% 29.78 in 10.0 mi South 4.6 mph - N/A Thunderstorm Mostly Cloudy
2:45 AM 87.8 °F 90.4 °F 66.2 °F 49% 29.78 in 10.0 mi West 3.5 mph - N/A   Mostly Cloudy
2:52 AM 88.0 °F 90.3 °F 66.0 °F 48% 29.75 in 10.0 mi SSW 4.6 mph - N/A Thunderstorm Mostly Cloudy
3:21 AM 86.0 °F 88.2 °F 66.2 °F 51% 29.81 in 10.0 mi East 13.8 mph - N/A Thunderstorm Partly Cloudy
3:52 AM 81.0 °F 84.4 °F 70.0 °F 69% 29.81 in 10.0 mi SE 17.3 mph 26.5 mph 0.00 in Rain , Thunderstorm Light Rain
4:21 AM 80.6 °F 83.9 °F 69.8 °F 70% 29.80 in 10.0 mi SE 17.3 mph - 0.00 in Rain Light Rain
4:30 AM 78.8 °F - 71.6 °F 78% 29.82 in 10.0 mi ESE 17.3 mph - 0.00 in Rain , Thunderstorm Light Rain
4:40 AM 78.8 °F - 71.6 °F 78% 29.82 in 10.0 mi ESE 16.1 mph - 0.00 in Rain , Thunderstorm Light Rain
4:52 AM 79.0 °F - 72.0 °F 79% 29.80 in 10.0 mi SE 20.7 mph 27.6 mph 0.00 in Rain , Thunderstorm Light Rain
5:04 AM 78.8 °F - 73.4 °F 83% 29.80 in 8.0 mi SSE 17.3 mph - 0.00 in Rain Light Rain
5:52 AM 78.1 °F - 73.9 °F 87% 29.78 in 10.0 mi South 9.2 mph - 0.06 in Rain Light Rain
6:52 AM 78.1 °F - 73.0 °F 84% 29.79 in 7.0 mi West 5.8 mph - 0.01 in Rain Light Rain
7:52 AM 79.0 °F - 75.0 °F 88% 29.80 in 10.0 mi NW 3.5 mph - 0.02 in   Clear
8:52 AM 80.1 °F 85.1 °F 75.0 °F 85% 29.83 in 10.0 mi East 4.6 mph - N/A   Clear
9:52 AM 81.0 °F 85.8 °F 73.0 °F 77% 29.83 in 10.0 mi SSW 4.6 mph - 0.00 in Rain Light Rain
10:52 AM 82.0 °F 87.4 °F 73.0 °F 74% 29.83 in 10.0 mi SSE 8.1 mph - 0.00 in   Clear
11:52 AM 84.9 °F 90.1 °F 71.1 °F 63% 29.82 in 10.0 mi SE 9.2 mph - N/A   Clear
12:52 PM 87.1 °F 93.6 °F 72.0 °F 61% 29.80 in 10.0 mi SSE 10.4 mph - N/A   Clear
1:52 PM 89.1 °F 93.7 °F 69.1 °F 52% 29.77 in 10.0 mi South 6.9 mph - N/A   Clear
2:52 PM 91.9 °F 98.4 °F 71.1 °F 50% 29.73 in 10.0 mi South 6.9 mph - N/A   Clear
3:52 PM 95.0 °F 101.3 °F 70.0 °F 44% 29.71 in 10.0 mi Calm Calm - N/A   Clear
4:52 PM 98.1 °F 101.8 °F 66.0 °F 35% 29.68 in 10.0 mi SW 6.9 mph - N/A   Clear
5:52 PM 97.0 °F 103.5 °F 70.0 °F 41% 29.66 in 10.0 mi SE 10.4 mph - N/A   Clear
6:52 PM 98.1 °F 103.0 °F 68.0 °F 37% 29.66 in 10.0 mi WSW 5.8 mph - N/A   Clear
7:52 PM 96.1 °F 99.9 °F 66.9 °F 38% 29.65 in 10.0 mi WSW 15.0 mph - N/A   Clear
8:52 PM 95.0 °F 97.9 °F 66.0 °F 38% 29.67 in 10.0 mi WSW 11.5 mph - N/A   Clear
9:52 PM 93.0 °F 96.4 °F 66.9 °F 42% 29.70 in 10.0 mi WSW 6.9 mph - N/A   Clear
10:52 PM 90.0 °F 95.4 °F 70.0 °F 52% 29.72 in 10.0 mi SE 4.6 mph - N/A   Clear
11:52 PM 89.1 °F 92.9 °F 68.0 °F 50% 29.73 in 10.0 mi SSW 8.1 mph - N/A   Clear